Location: ??????????
(31.2156°N, 29.9553°E)
Time: 07:47:46
(UTC+00:00)

ASTEX 1 - Pass Details

Date: 03 March 2021
Orbit: 720 x 743 km, 92.7° (Epoch: 15 April)

Event Time Altitude Azimuth Distance (km) Brightness Sun altitude
Rises 17:45:14 0° 8° (N) 3,136 6.7 -23.3°
Reaches altitude 10° 17:47:32 10° 11° (N) 2,211 5.8 -23.8°
Enters shadow 17:50:41 40° 22° (NNE) 1,059 4.0 -24.4°
